Вернуться в каталог

STARLINK-4728

АктивенСвязьVLEO
NORAD 53793·PAYLOAD·🇺🇸 United States

Запущен Sep 11, 2022 с Cape Canaveral Space Force Station

Loading…

Ближайшие Пролёты (ближайшие 24 часа)

TLE

СвежийSource: CelesTrak SupGP

Эпоха: Sep 15, 2026, 02:07 UTC

1 53793C 22111W   26258.08868056  .00049659  00000+0  15969-2 0  2580
2 53793  53.1585 131.2160 0001733  76.3970 174.3746 15.31675959    10

Отслеживайте STARLINK-4728 в реальном времени с AllMySat

Download on the App Store